Tracking 19709 objects as of 19-Jun-2019
HD Live streaming from Space Station
objects crossing your sky now

SL-8 DEB

Track SL-8 DEB now!
10-day predictions


NORAD ID: 1392
Int'l Code: 1965-020AH
Perigee: 497.2 km
Apogee: 984.4 km
Inclination: 55.9 °
Period: 99.5 minutes
Semi major axis: 7111 km
RCS: 0.2042 m2 (medium)
Launch date: March 15, 1965
Source: Commonwealth of Independent States (former USSR) (CIS)
Launch site: TYURATAM MISSILE AND SPACE COMPLEX (TTMTR)

Note: This is SATELLITE DEBRIS
aabbcc
Your satellite tracking list
Your tracking list is empty




NASA's NSSDC Master Catalog

Two Line Element Set (TLE):
1  1392U 65020AH  19169.43703345  .00000077  00000-0  43016-4 0  9995
2  1392  55.8804 174.6665 0342528 328.8281  29.2791 14.47540452721554
Source of the keplerian elements: AFSPC